Regional Weather Roundup
Issued by NWS Northern Indiana

Home | Current Version | Previous Version | Text Only | Print | Product List | Glossary Off
Versions: 1 2 3 4 5 6 7 8 9 10 11 12 13 14 15 16 17 18 19 20 21 22 23 24 25 26 27 28 29 30 31 32 33 34 35 36 37 38 39 40 41 42 43 44 45 46 47 48 49 50

000
ASUS43 KIWX 221910
RWRIWX

KIWX WEATHER ROUNDUP
NATIONAL WEATHER SERVICE NORTHERN INDIANA
300 PM EDT TUE APR 22 2014

NOTE: "FAIR" INDICATES FEW OR NO CLOUDS BELOW 12,000 FEET WITH NO
SIGNIFICANT WEATHER AND/OR OBSTRUCTIONS TO VISIBILITY.

* THESE STATIONS ARE NOT UNDER NWS QUALITY CONTROL. THEY ALSO MAY NOT
  REPORT WEATHER SUCH AS PRECIPITATION OR FOG.

INZ001>027-222000-
NORTHERN INDIANA

CITY           SKY/WX    TMP DP  RH WIND       PRES   REMARKS
GARY*          SUNNY     50  30  46 NE12G23   29.98S
VALPARAISO     SUNNY     49  28  44 N14       29.97S
MICHIGAN CITY* SUNNY     46  30  53 N14G22    29.99R
LAPORTE*       SUNNY     47  31  52 N14G22    29.97S
SOUTH BEND     MOSUNNY   49  31  49 N23G31    29.96R
ELKHART*       MOSUNNY   48  30  49 NW15      29.94
GOSHEN         SUNNY     51  34  52 W21G26    29.91S
MONTICELLO*    SUNNY     54  33  46 N16G22    29.95S
LOGANSPORT*    SUNNY     54  30  40 NW10G24   29.94S
ROCHESTER*     SUNNY     54  32  43 NW16G26   29.93S
WARSAW*        SUNNY     50  32  50 NW18G26   29.91S
ANGOLA*        MOSUNNY   52  36  54 NW20G30   29.85S
FORT WAYNE     MOSUNNY   55  33  43 NW20G29   29.88R
HUNTINGTON*    FAIR      53  33  45 NW16G25   29.89S
PERU/GRISSOM   SUNNY     55  34  45 NW16G25   29.92S
MARION*        SUNNY     55  31  39 NW17G28   29.91S

$$
INZ028>050-222000-
CENTRAL INDIANA

CITY           SKY/WX    TMP DP  RH WIND       PRES   REMARKS
LAFAYETTE      SUNNY     56  35  45 N16G22    29.94F
KOKOMO*        SUNNY     55  34  44 NW18G28   29.92S
MUNCIE*        SUNNY     57  37  47 NW20G26   29.89S
INDIANAPOLIS   SUNNY     59  36  42 NW18G25   29.91S

$$
MIZ043>046-050>051-056>058-064>065-071>073-077>080-222000-
SOUTHWEST LOWER MICHIGAN

CITY           SKY/WX    TMP DP  RH WIND       PRES   REMARKS
BATTLE CREEK   PTSUNNY   51  33  50 NW17G26   29.86S
BENTON HARBOR  SUNNY     44  32  62 N9G24     29.97R
COLDWATER*     PTSUNNY   51  32  49 NW17G26   29.84S
HILLSDALE*     PTSUNNY   54  32  43 NW21      29.82R
HOLLAND        SUNNY     48  32  53 NW16G29   29.94R
GRAND RAPIDS   PTSUNNY   48  31  51 NW20G31   29.90R
KALAMAZOO      PTSUNNY   52  33  48 NW17G25   29.89R
STURGIS*       MOSUNNY   50  34  53 NW16G25   29.87F
THREE RIVERS*  FAIR      51  33  49 NW18G26   29.90R

$$
OHZ001>008-015>018-024>025-222000-
NORTHWEST OHIO

CITY           SKY/WX    TMP DP  RH WIND       PRES   REMARKS
WAUSEON*       FAIR      55  34  44 NW21G29   29.80S
DEFIANCE       SUNNY     58  33  39 NW15G24   29.83S
FINDLAY        SUNNY     62  35  36 W22G32    29.78S
TOLEDO EXPRESS MOSUNNY   58  33  39 NW21G28   29.79R
TOLEDO METCALF SUNNY     59  34  39 NW18G28   29.79R
LIMA           SUNNY     60  36  40 W20G30    29.80F

$$
&&



USA.gov is the U.S. government's official web portal to all federal, state and local government web resources and services.